OpenBCM V1.13 (Linux)

Packet Radio Mailbox

DB0FHN

[JN59NK Nuernberg]

 Login: GUEST





  
I0OJJ  > KEPS     20.01.25 06:08l 326 Lines 15571 Bytes #999 (0) @ AMSAT
BID : ORB25020.1
Read: DJ6UX GUEST
Subj: 2Line Orbital Elements 25020.AMSAT
Path: DB0FHN<DB0RKB<DK0WUE<DK0WUE<VK5RSV<VK2RZ<LU9DCE<EA2RCF<I0OJJ
Sent: 250120/0345z @:I0OJJ.ITA.EU [Rome] obcm1.08-6-g5b69
From: I0OJJ @ I0OJJ.ITA.EU (Gustavo)
To:   KEPS @ AMSAT
X-Info: This message was generated automatically


QST de W1STR

AMSAT Orbital Elements for Amateur Satellites in TLE Format
From Orbital Analysis Office
New England Sci-Tech STEM Education Center
Natick, MA January 20, 2025
To all radio amateurs


These element sets describe the orbits of various satellites 
in use by the amateur radio community. For details see:
www.amsat.org/keplerian-elements-formats/

A daily update of element sets is available at:
www.amsat.org/tle/daily-bulletin.txt
or without bulletin text:
www.amsat.org/tle/dailytle.txt


AO-07
1 07530U 74089B   25019.57565498 -.00000036  00000-0  65242-4 0  9992
2 07530 101.9918  22.3479 0012309  32.2394  89.7926 12.53685102296158
UO-11
1 14781U 84021B   25019.48082964  .00003030  00000-0  33159-3 0  9994
2 14781  97.7358 348.8879 0009560  84.0295 276.2012 14.88506816180643
AO-27
1 22825U 93061C   25019.16355644  .00000273  00000-0  12164-3 0  9998
2 22825  98.7594  79.8788 0008757 160.7793 199.3721 14.30710076633496
FO-29
1 24278U 96046B   25019.60855222  .00000044  00000-0  82714-4 0  9999
2 24278  98.5887 291.9555 0349877 347.9083  11.3816 13.53232611403709
NOAA-15
1 25338U 98030A   25019.86879927  .00000401  00000-0  18276-3 0  9996
2 25338  98.5504  48.2897 0011091  54.9663 305.2556 14.26860511388332
GO-32
1 25397U 98043D   25019.55908255  .00000271  00000-0  13770-3 0  9997
2 25397  98.9531 355.8732 0000358 215.4921 144.6233 14.24236759378213
ISS
1 25544U 98067A   25019.84445605  .00034242  00000-0  59998-3 0  9991
2 25544  51.6387 321.8439 0002527 114.4172 344.4657 15.50252769492154
NO-44
1 26931U 01043C   25019.66985495  .00000577  00000-0  24750-3 0  9998
2 26931  67.0511 132.1299 0006263 261.8057  98.2334 14.31588076217097
SO-50
1 27607U 02058C   25019.85445862  .00003344  00000-0  44529-3 0  9997
2 27607  64.5543 274.6652 0039185  10.9106 349.2839 14.80792715188599
CO-55
1 27844U 03031E   25019.57877790  .00000815  00000-0  37555-3 0  9991
2 27844  98.6783  29.6739 0008784 233.2757 126.7616 14.23773065118603
CO-57
1 27848U 03031J   25019.46269312  .00000646  00000-0  30518-3 0  9992
2 27848  98.6813  29.6685 0008531 252.2677 107.7570 14.23140066118295
RS-22
1 27939U 03042A   25019.84254863  .00002932  00000-0  47906-3 0  9991
2 27939  98.3104 186.0755 0012673  95.0889  41.3372 14.71609843140128
NOAA-18
1 28654U 05018A   25019.83469529  .00000413  00000-0  24264-3 0  9991
2 28654  98.8559 100.8410 0014560 165.7984 194.3600 14.13491017 13863
CO-58
1 28895U 05043F   25019.80703641  .00004115  00000-0  69401-3 0  9994
2 28895  98.2261 162.6864 0015476  35.9985 324.2260 14.69952343 26482
CO-65
1 32785U 08021C   25019.48532044  .00008943  00000-0  69236-3 0  9996
2 32785  97.7681 350.0352 0009084 347.4617  12.6380 15.01655895907951
AAUSAT2
1 32788U 08021F   25019.51018855  .00081911  00000-0  18570-2 0  9992
2 32788  97.6062   9.9667 0006937 105.8067 254.3945 15.42759306911352
CO-66
1 32791U 08021J   25019.85401894  .00021449  00000-0  12212-2 0  9999
2 32791  97.7157 357.4616 0002528 317.3476  42.7558 15.12848149909259
RS-30
1 32953U 08025A   25019.88507165  .00000054  00000-0  31631-3 0  9990
2 32953  82.5060 314.7001 0019810 355.5722   4.5179 12.43157548756058
NOAA-19
1 33591U 09005A   25019.88913957  .00000391  00000-0  23248-3 0  9997
2 33591  99.0188  83.6891 0014315  44.3836 315.8480 14.13263702822230
SRMSAT
1 37841U 11058D   25019.83334625  .00000628  00000-0  19770-3 0  9992
2 37841  19.9724 286.2181 0011638 316.9922  95.2958 14.11340494685420
ZACUBE-1
1 39417U 13066B   25019.41027002  .00007796  00000-0  71987-3 0  9997
2 39417  97.7626 337.5813 0046848 161.0885 199.2088 14.94048010603818
Delfi-N3xt
1 39428U 13066N   25019.29848370  .00010543  00000-0  11584-2 0  9994
2 39428  97.8378 298.8650 0092036 104.2652 256.8805 14.84731662598084
GOMX-1
1 39430U 13066Q   25019.85922951  .00005376  00000-0  85631-3 0  9990
2 39430  97.7011 247.0780 0133599 282.7429  75.8872 14.66541199594773
LO-74
1 39440U 13066AA  25019.61899758  .00009251  00000-0  98407-3 0  9994
2 39440  97.8361 325.5024 0063059 285.2523  74.1727 14.87710651600461
AO-73
1 39444U 13066AE  25019.85312739  .00012685  00000-0  10423-2 0  9999
2 39444  97.7501 341.9307 0044032 135.0495 225.4305 14.98534766603072
DTUSAT-2
1 40030U 14033W   25019.36229511  .00011957  00000-0  85324-3 0  9992
2 40030  98.0404 344.8693 0010132 164.9891 195.1636 15.04657862575132
EO-80
1 40032U 14033Y   25019.85589860  .00014691  00000-0  10447-2 0  9995
2 40032  98.0273 345.2258 0010542 111.3389 248.8962 15.04732066575704
XW-2C
1 40906U 15049H   25019.79359187  .00324595  00000-0  12904-2 0  9990
2 40906  97.4451  52.8352 0002894 182.9094 177.2160 15.85854844518181
LILACSAT-2
1 40908U 15049K   25019.88427391  .00018648  00000-0  56862-3 0  9996
2 40908  97.5178  37.2344 0008920 312.2769  47.7716 15.33962287516620
IO-86
1 40931U 15052B   25016.55886635  .00001544  00000-0  11913-3 0  9992
2 40931   6.0017 267.3552 0013562 231.8221 128.0684 14.78512223503191
Horyu-4
1 41340U 16012D   25019.28852085  .00026846  00000-0  95003-3 0  9993
2 41340  30.9996 356.0040 0005831  25.3446 334.7482 15.27944354491097
Lapan A3
1 41603U 16040E   25019.80376198  .00006059  00000-0  22272-3 0  9992
2 41603  97.1394  30.0785 0013025  57.0155 303.2335 15.28171396476274
CAS-2T
1 41847U 16066G   25019.17601697  .00002960  00000-0  43454-3 0  9997
2 41847  98.4367  94.8355 0347836 245.9557 110.4872 14.42732639430624
CAS-4B
1 42759U 17034B   25019.61631789  .00050478  00000-0  10480-2 0  9999
2 42759  43.0126  69.9908 0014959  24.1278 336.0279 15.44806455420679
CAS-4A
1 42761U 17034D   25019.58872959  .00052004  00000-0  10642-2 0  9991
2 42761  43.0167  68.1873 0015839  31.6981 328.4828 15.45202814420687
TechnoSat
1 42829U 17042E   25019.44546903  .00006209  00000-0  50274-3 0  9999
2 42829  97.3931 195.0163 0014076  59.3153 300.9457 14.99992061409559
AO-91
1 43017U 17073E   25019.58468409  .00018405  00000-0  10085-2 0  9998
2 43017  97.5469 254.0562 0184834 286.6749  71.4258 15.00747467388031
S-Net D
1 43186U 18014G   25019.67993052  .00011108  00000-0  70017-3 0  9993
2 43186  97.5746 284.1602 0009687 358.6831   1.4370 15.09269485381106
S-Net B
1 43187U 18014H   25019.61743196  .00010671  00000-0  67304-3 0  9999
2 43187  97.5749 284.0627 0010309 353.4964   6.6129 15.09252121381095
S-Net A
1 43188U 18014J   25019.81334667  .00010920  00000-0  68820-3 0  9992
2 43188  97.5760 284.3891 0010191 353.3795   6.7297 15.09275807381122
S-Net C
1 43189U 18014K   25019.61953522  .00010627  00000-0  67013-3 0  9995
2 43189  97.5771 284.1872 0011572 345.7268  14.3633 15.09250004379641
Ten-Koh
1 43677U 18084G   25019.43754029  .00004955  00000-0  41257-3 0  9994
2 43677  98.0816 186.1638 0013592  17.8708 342.2989 14.99078043339080
PO-101
1 43678U 18084H   25019.76003271  .00003906  00000-0  34344-3 0  9991
2 43678  98.0906 190.7126 0009849  41.8122 318.3849 14.97125483339304
QO-100
1 43700U 18090A   25019.79910353  .00000158  00000-0  00000+0 0  9999
2 43700   0.0205  84.6316 0001165 230.0535 118.2244  1.00276180 22777
MinXSS-2
1 43758U 18099A   25019.75336352  .00024399  00000-0  11666-2 0  9994
2 43758  97.5238  85.8549 0012551 292.1246  67.8656 15.18923796335541
AO-95
1 43770U 18099N   25019.86049472  .00016185  00000-0  91904-3 0  9992
2 43770  97.5143  79.7438 0011457 346.3085  13.7833 15.12951458335240
RANGE-A
1 43773U 18099R   25019.86698657  .00009468  00000-0  63923-3 0  9996
2 43773  97.4718  72.3887 0010839 321.5697  38.4758 15.06764693335015
MOVE-II
1 43780U 18099Y   25019.14498590  .00064608  00000-0  17196-2 0  9996
2 43780  97.4888  88.7545 0003942 302.5527  57.5337 15.37968778335841
SNUSat 2
1 43782U 18099AA  25019.66857599  .00013103  00000-0  78616-3 0  9992
2 43782  97.4835  77.3813 0011505 282.5550  77.4393 15.11009166335194
SnugLite
1 43784U 18099AC  25019.58859321  .00015778  00000-0  89055-3 0  9999
2 43784  97.4645  76.6491 0002538 295.5391  64.5577 15.13224044335289
ITASat 1
1 43786U 18099AE  25019.60641003  .00011557  00000-0  71639-3 0  9990
2 43786  97.4801  77.1950 0014720 338.2510  21.8092 15.09816385335160
EAGLET 1
1 43790U 18099AJ  25019.68877732  .00008295  00000-0  55819-3 0  9990
2 43790  97.4999  77.6029 0011615 317.8588  42.1746 15.06922315334836
ESEO
1 43792U 18099AL  25019.58404429  .00003243  00000-0  25422-3 0  9995
2 43792  97.4713  72.5576 0007555 271.5382  88.4978 15.01633751334657
CSIM
1 43793U 18099AM  25019.71545156  .00079629  00000-0  21254-2 0  9993
2 43793  97.5055  91.2562 0007579 271.1719  88.8657 15.37793388335771
JO-97
1 43803U 18099AX  25019.09898419  .00017998  00000-0  94900-3 0  9999
2 43803  97.4898  79.7794 0007052 281.3356  78.7084 15.15603552335301
Suomi 100
1 43804U 18099AY  25019.44873213  .00015394  00000-0  85071-3 0  9991
2 43804  97.4960  79.7403 0012433 279.6239  80.3588 15.13923161335316
ISAT
1 43879U 18111D   25019.31987363  .00025190  00000-0  11134-2 0  9999
2 43879  97.6048 291.3712 0010115 346.3001  13.7958 15.21651131332150
UWE-4
1 43880U 18111E   25019.26489446  .00020826  00000-0  98764-3 0  9990
2 43880  97.5989 290.6105 0013838 353.6143   6.4913 15.19228046332125
Sparrow
1 43881U 18111F   25019.72576241  .00031073  00000-0  13381-2 0  9999
2 43881  97.6169 294.1870 0009430  25.2946 334.8749 15.22501084330292
Prox-1
1 44339U 19036A   25019.82759153  .00019289  00000-0  27579-2 0  9990
2 44339  23.9976 263.1699 0007727 274.1947  85.7666 14.75090971297261
SONATE
1 44400U 19038Q   25019.55971582  .00074454  00000-0  11006-2 0  9996
2 44400  97.7121  32.3144 0012858  56.1035 304.1439 15.54978121307447
